This is the latest recevied weather packets stored in our database for station/object KC9DNQ-3. If no packets are shown the sender has not sent any weather packets the latest 10 day(s).
| Time | Temp. | Humidity | Pressure | Rain* | Wind** | Luminosity | Snow |
|---|---|---|---|---|---|---|---|
| 1777575610 | 16.67° C | 39% | 1013.6 hPa | 0 mm | - | 517 W/m² | - |
| 1777575310 | 16.67° C | 39% | 1013.6 hPa | 0 mm | - | 422 W/m² | - |
| 1777575010 | 16.11° C | 42% | 1013.6 hPa | 0 mm | - | 469 W/m² | - |
| 1777574709 | 16.11° C | 40% | 1013.6 hPa | 0 mm | - | 336 W/m² | - |
| 1777574410 | 16.67° C | 41% | 1013.6 hPa | 0 mm | - | 415 W/m² | - |
| 1777574109 | 16.11° C | 38% | 1013.7 hPa | 0 mm | - | 947 W/m² | - |
| 1777573810 | 16.11° C | 40% | 1013.8 hPa | 0 mm | - | 376 W/m² | - |
| 1777573509 | 16.67° C | 39% | 1013.9 hPa | 0 mm | - | 610 W/m² | - |
| 1777573211 | 16.67° C | 39% | 1014.1 hPa | 0 mm | - | 455 W/m² | - |
| 1777572909 | 16.67° C | 43% | 1014.2 hPa | 0 mm | - | 406 W/m² | - |
| 1777572609 | 16.67° C | 43% | 1014.2 hPa | 0 mm | - | 1121 W/m² | - |
| 1777572310 | 16.67° C | 40% | 1014.2 hPa | 0 mm | - | 534 W/m² | - |
| 1777572010 | 16.11° C | 42% | 1014.3 hPa | 0 mm | - | 439 W/m² | - |
| 1777571709 | 15.56° C | 43% | 1014.6 hPa | 0 mm | - | 1113 W/m² | - |
| 1777571410 | 15° C | 39% | 1014.6 hPa | 0 mm | - | 323 W/m² | - |
| 1777571110 | 15.56° C | 40% | 1014.6 hPa | 0 mm | - | 315 W/m² | - |
| 1777570810 | 16.11° C | 39% | 1014.7 hPa | 0 mm | - | 301 W/m² | - |
| 1777570510 | 16.11° C | 39% | 1014.9 hPa | 0 mm | - | 306 W/m² | - |
| 1777570210 | 16.67° C | 41% | 1014.9 hPa | 0 mm | - | 853 W/m² | - |
| 1777569909 | 16.11° C | 38% | 1014.9 hPa | 0 mm | - | 895 W/m² | - |
| 1777569610 | 16.11° C | 42% | 1015 hPa | 0 mm | - | 954 W/m² | - |
| 1777569310 | 15.56° C | 41% | 1015 hPa | 0 mm | - | 986 W/m² | - |
| 1777569010 | 15.56° C | 42% | 1015.1 hPa | 0 mm | - | 935 W/m² | - |
| 1777568410 | 15.56° C | 43% | 1015.2 hPa | 0 mm | - | 891 W/m² | - |
| 1777568110 | 15.56° C | 40% | 1015.3 hPa | 0 mm | - | 879 W/m² | - |
* Rain latest hour (hover to see other rain measurements)
** Current wind speed in m/s (hover to see current wind gust speed)